www.pogodaiklimat.ru

Погода и климат >> Архив погоды >> Великобритания >> Шобери


ПОГОДА в Шобери

  • Прогноз погоды в Шобери
  • Монитор погоды в Шобери

АРХИВ ПОГОДЫ в Шобери

Время (UTC), дата Ветер
(напр.,м/с)
 
Видим.   Явления Облачность Т
(С)
Тd
(С)
f
(%)
Тe
(С)
Тes
(С)
Комфортность P
(гПа)
Po
(гПа)
Тmin
(С)
Tmax
(С)
R
(мм)
R24
(мм)
S
(см)
10 13.09 С 3 40 км 4/3 600 м
[Cu hum Ci fib]
+14.5 +9.5 72 +14 +18 1036.9 1028.0
11 13.09 СЗ 3 40 км 5/3 840 м
[Cu hum Ci fib]
+15.7 +9.0 64 +15 +20 1036.7 1027.9
12 13.09 С 3 40 км 3/3 960 м
[Cu hum Ci fib]
+16.7 +9.2 61 +17 +22 1036.6 1027.8
13 13.09 С 4 40 км 4/4 1050 м
[Sc diur, vesp Ci fib]
+16.3 +8.1 58 +16 +19 1036.4 1027.7
14 13.09 С 4 40 км 5/4 1200 м
[Sc diur, vesp Ci fib]
+16.8 +8.6 58 +16 +19 1036.4 1027.7
15 13.09 СЗ 4 40 км 4/1 1350 м
[Cu hum Ci fib]
+17.1 +8.0 55 +17 +20 1036.4 1027.6
16 13.09 С 4 40 км 4/1 1350 м
[Cu hum Ci fib]
+16.8 +8.0 56 +16 +18 1036.3 1027.5
17 13.09 С 4 30 км н/о +16.2 +7.5 56 +16 +16 1036.2 1027.4
18 13.09 С 3 30 км н/о +14.1 +8.0 67 +13 +13 1036.5 1027.7 +17.6
19 13.09 С 2 29 км н/о +12.3 +7.9 74 +12 +12 1036.6 1027.7
20 13.09 С 1 21 км н/о +11.6 +7.1 74 +12 +12 1037.2 1028.3
21 13.09 СЗ 3 27 км н/о +9.1 +6.4 83 +7 +7 1037.2 1028.2
22 13.09 СЗ 2 24 км н/о +9.1 +7.0 87 +8 +8 1037.2 1028.2
23 13.09 З 2 19 км н/о +6.7 +5.3 91 +4 +4 1037.2 1028.1
00 14.09 Ю 1 16 км н/о +7.0 +6.3 95 +7 +7 1036.8 1027.8
01 14.09 С 1 18 км н/о +5.5 +4.6 94 +4 +4 1036.9 1027.8
02 14.09 ЮЗ 1 14 км н/о +5.2 +4.6 96 +5 +5 1036.3 1027.2
03 14.09 Ю 1 15 км н/о +5.9 +5.5 97 +6 +6 1035.8 1026.7
04 14.09 ЮЗ 1 12 км н/о +4.1 +3.6 97 +4 +4 1035.4 1026.2
05 14.09 З 1 9000 м н/о +4.4 +3.9 97 +3 +3 1035.2 1026.1
06 14.09 ЮЗ 1 6000 м в посл. час туман н/о +4.4 +4.1 98 +3 +3 1034.8 1025.7 +3.7
07 14.09 штиль 0 14 км н/о +6.0 +5.8 99 +5 +5 1034.2 1025.1
08 14.09 СВ 1 18 км н/о +8.5 +8.1 97 +9 +9 1034.5 1025.5
09 14.09 Ю 2 22 км н/о +11.3 +8.7 84 +10 +10 1033.7 1024.8
10 14.09 Ю 3 22 км н/о +14.4 +9.8 74 +14 +14 1033.5 1024.7
11 14.09 Ю 5 21 км н/о +17.0 +9.5 61 +16 +16 1032.6 1023.9
12 14.09 Ю 5 26 км н/о +18.7 +9.7 56 +19 +19 1031.6 1023.0
13 14.09 ЮЗ 4 27 км н/о +19.6 +9.0 50 +21 +21 комфорт 1030.8 1022.2
14 14.09 ЮЗ 6 30 км н/о +19.6 +8.9 50 +20 +20 1030.0 1021.4
15 14.09 ЮЗ 5 27 км н/о +20.8 +10.9 53 +23 +23 комфорт 1028.8 1020.2
16 14.09 З 5 23 км н/о +20.3 +11.6 57 +22 +22 комфорт 1028.3 1019.8
17 14.09 З 4 29 км н/о +19.1 +11.1 60 +20 +20 1028.1 1019.5
18 14.09 З 4 30 км н/о +17.5 +11.8 69 +17 +17 1027.6 1019.0 +21.2
19 14.09 З 3 23 км н/о +15.4 +11.7 79 +15 +15 1027.6 1018.9
20 14.09 З 4 19 км н/о +13.7 +11.1 84 +12 +12 1027.9 1019.1
21 14.09 ЮЗ 6 23 км н/о +14.2 +11.9 86 +12 +12 1027.0 1018.3
22 14.09 Ю 3 20 км н/о +13.8 +11.8 88 +13 +13 1027.0 1018.2
23 14.09 Ю 3 18 км н/о +13.0 +11.0 88 +12 +12 1026.2 1017.5
00 15.09 ЮЗ 6 25 км н/о +13.6 +11.2 85 +11 +11 1026.0 1017.3
01 15.09 ЮЗ 8 28 км н/о +12.9 +10.2 84 +10 +10 1025.0 1016.3
02 15.09 ЮЗ 4 25 км н/о +12.7 +10.1 84 +11 +11 1025.2 1016.5
03 15.09 ЮЗ 6 24 км н/о +12.8 +10.8 88 +10 +10 1024.7 1016.0
04 15.09 З 8 25 км н/о +13.4 +11.3 87 +11 +11 1024.2 1015.5
05 15.09 ЮЗ 7 24 км н/о +13.7 +11.5 87 +11 +11 1023.8 1015.1
06 15.09 ЮЗ 5 21 км н/о +13.4 +11.6 89 +11 +11 1024.3 1015.5 +11.5
07 15.09 ЮЗ 6 23 км н/о +14.3 +12.6 90 +12 +12 1024.1 1015.4
08 15.09 З 6 19 км н/о +15.7 +13.7 88 +14 +14 1024.3 1015.7
09 15.09 З 6 28 км н/о +16.8 +14.3 85 +16 +16 1024.5 1015.9
10 15.09 З 6 30 км н/о +18.5 +15.0 80 +19 +19 1024.2 1015.6
11 15.09 З 5 30 км н/о +19.0 +14.8 77 +20 +20 1024.2 1015.7
12 15.09 СЗ 3 25 км в посл. час дождь н/о +16.4 +14.4 88 +16 +16 1024.3 1015.6 0.0
13 15.09 СЗ 4 25 км н/о +15.9 +13.6 86 +15 +15 1024.3 1015.6
14 15.09 С 3 19 км н/о +15.3 +13.5 89 +15 +15 1024.0 1015.3
15 15.09 С 2 22 км н/о +14.9 +12.9 88 +15 +15 1023.8 1015.1
16 15.09 С 3 18 км н/о +14.6 +12.6 88 +14 +14 1023.5 1014.8
17 15.09 С 2 15 км слаб. морось с дождем н/о +13.9 +12.5 91 +13 +13 1023.3 1014.5
18 15.09 СВ 2 19 км в посл. час дождь н/о +13.8 +12.6 92 +13 +13 1023.2 1014.5 +19.6 0.0
19 15.09 СВ 1 16 км в посл. час дождь н/о +13.5 +12.3 92 +14 +14 1022.8 1014.1
20 15.09 СЗ 1 14 км н/о +13.3 +12.3 94 +13 +13 1022.8 1014.1
21 15.09 СЗ 1 13 км н/о +13.3 +12.4 94 +14 +14 1022.7 1014.0
22 15.09 ЮЗ 1 7000 м дождь н/о +13.4 +12.7 96 +13 +13 1022.9 1014.1
23 15.09 Ю 1 9000 м слаб. дождь н/о +13.6 +13.0 96 +14 +14 1022.3 1013.6
00 16.09 СВ 1 7000 м в посл. час дождь н/о +13.6 +13.2 97 +14 +14 1022.1 1013.4 1
01 16.09 С 1 5000 м слаб. морось н/о +13.5 +13.1 97 +14 +14 1022.0 1013.3
02 16.09 СЗ 2 4300 м в посл. час морось н/о +13.2 +12.9 98 +13 +13 1021.9 1013.2
03 16.09 С 3 7000 м дымка н/о +12.6 +12.3 98 +11 +11 1021.6 1012.8
04 16.09 С 3 8000 м в посл. час дождь н/о +12.5 +12.1 97 +11 +11 1021.3 1012.6
05 16.09 С 2 6000 м слаб. морось 10/10 90 м
[St]
+12.4 +12.1 98 +11 +11 1021.2 1012.5
06 16.09 С 2 2500 м слаб. морось 10/10 90 м
[St]
+12.3 +12.0 98 +11 +11 1021.5 1012.7 +12.3 2
07 16.09 С 2 6000 м в посл. час морось 10/10 90 м
[St]
+12.2 +11.9 98 +11 +11 1021.9 1013.1
08 16.09 С 2 3000 м слаб. морось 10/10 90 м
[St]
+12.5 +12.1 97 +11 +11 1022.4 1013.6
09 16.09 С 3 2800 м слаб. морось 10/10 90 м
[Frnb]
+13.0 +12.5 97 +12 +12 1022.7 1013.9
10 16.09 С 3 2500 м слаб. морось 9/9 120 м
[Frnb]
+13.2 +12.7 97 +12 +12 1023.1 1014.4
11 16.09 СЗ 3 8000 м в посл. час морось 9/9 120 м
[St]
+13.8 +12.7 93 +13 +13 1023.3 1014.6
12 16.09 С 3 20 км {морось} 9/9 360 м
[Cu Sc Ci fib]
+14.8 +11.2 79 +14 +15 1023.2 1014.5 0.4
13 16.09 С 3 20 км 9/9 600 м
[Sc]
+15.4 +10.7 74 +15 +15 1023.3 1014.7
14 16.09 СЗ 4 22 км 9/9 720 м
[Cu Sc]
+15.5 +10.4 72 +15 +15 1023.3 1014.7
15 16.09 С 5 25 км 9/9 750 м
[Sc]
+15.5 +10.0 70 +14 +15 1023.3 1014.6
16 16.09 СЗ 5 25 км 8/8 700 м
[Sc]
+14.9 +9.9 72 +14 +14 1023.3 1014.6
17 16.09 СЗ 4 30 км 4/3 840 м
[Sc Ci fib]
+14.8 +8.6 66 +14 +14 1023.4 1014.8
18 16.09 СЗ 4 30 км 4/3 840 м
[Sc Ci fib]
+13.3 +8.3 72 +12 +12 1023.8 1015.1 +15.9 0.4
19 16.09 СЗ 3 20 км 3/1 840 м
[Sc Ci fib]
+10.9 +7.8 81 +9 +9 1024.6 1015.8
20 16.09 З 2 25 км 3/1 840 м
[Sc Ci fib]
+10.2 +7.5 83 +9 +9 1025.1 1016.2
21 16.09 СЗ 2 25 км 1/1 840 м
[Sc]
+9.7 +7.4 86 +9 +9 1024.9 1016.1
22 16.09 ЮЗ 1 25 км 1/1 840 м
[Sc]
+7.8 +6.3 90 +8 +8 1024.9 1016.0
23 16.09 З 1 25 км 3/3 900 м
[Sc]
+8.1 +7.4 95 +8 +8 1025.0 1016.1
00 17.09 З 3 25 км 4/4 900 м
[Sc]
+8.0 +7.1 94 +5 +5 1025.1 1016.2
01 17.09 З 2 26 км н/о +8.3 +7.2 93 +6 +6 1025.1 1016.2
02 17.09 З 3 26 км н/о +10.0 +7.9 87 +8 +8 1025.0 1016.2
03 17.09 З 3 30 км н/о +10.2 +8.0 86 +8 +8 1025.1 1016.2
04 17.09 СЗ 3 25 км н/о +9.5 +8.1 91 +7 +7 1024.9 1016.0
05 17.09 З 3 30 км 9/9 840 м
[Sc]
+9.8 +8.3 90 +8 +8 1025.1 1016.2
06 17.09 З 3 30 км 3/3 960 м
[Sc Ci fib]
+7.8 +6.4 91 +5 +5 1025.6 1016.7 +6.9
07 17.09 З 3 30 км 3/3 900 м
[Sc]
+8.6 +7.2 91 +6 +7 1025.9 1016.9
08 17.09 З 2 35 км 6/6 700 м
[Sc]
+10.1 +8.0 87 +9 +10 1026.7 1017.8
09 17.09 СЗ 3 40 км 8/8 600 м
[Cu Sc]
+12.6 +9.1 79 +11 +12 1026.8 1018.0
10 17.09 СЗ 3 40 км 9/9 600 м
[Cu Sc]
+13.5 +9.4 76 +12 +13 1026.9 1018.1
11 17.09 СЗ 4 30 км в посл. час дождь 9/9 660 м
[Sc]
+13.4 +9.9 79 +12 +12 1027.1 1018.3
12 17.09 С 5 30 км {дождь} 4/4 750 м
[Cu Sc]
+16.0 +10.1 68 +15 +17 1026.9 1018.2 0.0
13 17.09 СЗ 5 35 км 3/3 1050 м
[Sc]
+15.9 +7.1 56 +15 +18 1026.7 1018.0
14 17.09 С 5 28 км н/о +16.1 +7.5 57 +15 +15 1026.9 1018.2
15 17.09 С 5 40 км 4/4 1200 м
[Sc Ac trans]
+15.2 +8.0 62 +14 +15 1027.1 1018.4
16 17.09 С 5 40 км 3/1 1200 м
[Sc Ci fib]
+15.3 +8.5 64 +14 +15 1027.1 1018.3
17 17.09 С 5 30 км 3/1 1050 м
[Sc Ac As]
+14.7 +7.9 64 +13 +14 1027.3 1018.6
18 17.09 С 3 30 км 1/1 1050 м
[Sc Ac As]
+13.1 +7.9 71 +12 +12 1027.4 1018.6 +16.9 0.0
19 17.09 СЗ 3 30 км 1/1 1050 м
[Sc Ci fib]
+11.3 +7.1 75 +10 +10 1028.1 1019.3
20 17.09 СЗ 3 30 км ясно +10.7 +7.3 79 +9 +9 1028.4 1019.5
21 17.09 С 2 25 км ясно +9.7 +6.9 83 +9 +9 1028.8 1019.9
22 17.09 С 1 25 км ясно +9.2 +7.1 87 +9 +9 1029.3 1020.4
23 17.09 З 2 25 км ясно +7.5 +5.8 89 +6 +6 1029.3 1020.3
00 18.09 В 2 22 км н/о +7.7 +6.8 94 +5 +5 1029.5 1020.5
01 18.09 ЮЗ 2 19 км н/о +6.0 +5.4 96 +4 +4 1029.6 1020.5
02 18.09 С 1 13 км н/о +5.1 +4.5 96 +5 +5 1029.6 1020.5
03 18.09 З 1 9000 м дымка н/о +4.7 +4.1 96 +4 +4 1029.8 1020.7
04 18.09 В 1 5000 м в посл. час туман н/о +4.7 +4.3 97 +4 +4 1029.7 1020.7
05 18.09 З 1 200 м туман н/о +3.5 +3.1 97 +3 +3 1029.9 1020.8
06 18.09 штиль 0 600 м туман 3/3 30 м
[St]
+3.1 +2.8 98 +2 +2 1030.1 1021.0 +2.8
07 18.09 СЗ 1 2000 м в посл. час туман 1/1 30 м
[St Ci fib]
+4.3 +4.1 99 +4 +4 1030.5 1021.4
08 18.09 Ю 1 20 км 1/0
[Ac trans Ci fib]
+7.6 +7.5 99 +6 +8 1030.8 1021.8
09 18.09 З 2 30 км {туман} 6/6 1500 м
[Sc]
+10.6 +9.9 95 +9 +11 1031.1 1022.2
10 18.09 З 3 30 км 8/8 1500 м
[Sc]
+12.8 +9.2 79 +12 +13 1031.0 1022.2
11 18.09 Ю 1 30 км 8/8 1500 м
[Sc]
+14.6 +9.7 72 +15 +17 1030.9 1022.1
12 18.09 СЗ 2 30 км {туман} 8/8 750 м
[Cu Sc]
+15.4 +9.6 68 +16 +17 1030.8 1022.0
13 18.09 З 2 30 км 8/8 900 м
[Cu Sc]
+16.3 +9.1 62 +16 +18 1030.5 1021.8
14 18.09 СЗ 2 30 км 8/8 1050 м
[Cu Sc]
+16.6 +8.2 58 +17 +19 1030.1 1021.4
15 18.09 СЗ 2 30 км 8/8 1500 м
[Sc]
+16.6 +8.8 60 +17 +18 1030.0 1021.3
16 18.09 С 3 30 км 8/8 1500 м
[Sc]
+16.1 +9.1 63 +16 +16 1029.8 1021.0
17 18.09 С 3 30 км 8/8 1500 м
[Sc]
+15.7 +10.2 70 +15 +15 1029.9 1021.1
18 18.09 С 3 30 км 8/8 1500 м
[Sc]
+14.8 +8.7 67 +14 +14 1030.1 1021.4 +17.0
19 18.09 С 2 30 км 8/8 1500 м
[Sc]
+13.8 +9.8 77 +14 +14 1030.6 1021.8
20 18.09 СЗ 1 30 км 8/8 1500 м
[Sc]
+13.3 +9.9 80 +13 +13 1030.9 1022.1
21 18.09 СЗ 2 30 км 9/9 1500 м
[Sc]
+13.4 +9.7 78 +13 +13 1031.3 1022.5
22 18.09 СЗ 2 25 км 9/9 1440 м
[Sc]
+13.1 +10.1 82 +13 +13 1031.5 1022.7
23 18.09 СЗ 1 25 км 8/8 1440 м
[Sc]
+12.9 +10.2 84 +13 +13 1031.5 1022.7
00 19.09 СЗ 1 22 км н/о +11.8 +9.6 86 +12 +12 1031.5 1022.6
01 19.09 штиль 0 13 км н/о +9.4 +8.1 92 +9 +9 1031.5 1022.6
02 19.09 СЗ 1 12 км н/о +8.5 +7.7 95 +9 +9 1031.5 1022.5
03 19.09 З 1 11 км н/о +7.1 +6.5 96 +6 +6 1031.4 1022.4
04 19.09 ЮЗ 2 10 км н/о +6.8 +6.4 97 +4 +4 1031.4 1022.4
05 19.09 ЮЗ 1 800 м туман местами 4/0
[Ci fib]
+7.9 +7.6 98 +8 +8 1031.3 1022.3
06 19.09 С 1 400 м туман 5/0
[Ci fib]
+6.4 +6.1 98 +5 +5 1031.7 1022.7 +5.7
07 19.09 ЮЗ 1 2000 м в посл. час туман 3/0
[Ci fib]
+6.8 +6.6 99 +7 +7 1031.9 1022.9
08 19.09 ЮЗ 1 22 км 1/0
[Ci fib]
+9.5 +9.3 99 +10 +12 1032.2 1023.3
09 19.09 Ю 1 22 км {туман} 1/1 300 м
[St Ci fib]
+13.0 +11.4 90 +13 +17 1032.3 1023.4
10 19.09 Ю 1 25 км 1/1 480 м
[Cu hum]
+14.7 +11.1 79 +16 +22 1032.4 1023.6
11 19.09 СЗ 1 30 км 1/1 750 м
[Cu hum]
+16.7 +10.4 66 +18 +26 1032.1 1023.4
12 19.09 ЮВ 1 25 км {туман} 1/1 1050 м
[Cu hum Ci fib]
+17.6 +8.9 57 +19 +28 1031.7 1023.0
13 19.09 Ю 1 30 км 1/1 1200 м
[Cu hum Ci fib]
+19.1 +8.5 50 +21 +29 комфорт 1031.0 1022.4
14 19.09 ЮЗ 1 35 км 1/1 1200 м
[Cu hum Ci fib]
+19.7 +7.8 46 +22 +29 комфорт 1030.6 1022.0
15 19.09 ЮЗ 1 35 км 1/1 1350 м
[Cu hum Ci fib]
+20.5 +8.0 44 +23 +27 комфорт 1030.2 1021.6
16 19.09 С 1 35 км 3/0
[Ci fib]
+20.0 +7.7 45 +22 +25 комфорт 1029.8 1021.2
17 19.09 С 1 40 км 3/0
[Ci fib]
+19.9 +7.3 44 +22 +23 комфорт 1029.6 1021.0
18 19.09 С 1 40 км 3/0
[Ci fib]
+17.6 +9.2 58 +19 +19 1029.4 1020.8 +20.7
19 19.09 С 2 40 км 3/0
[Ci fib]
+15.1 +10.0 72 +15 +15 1029.8 1021.0
20 19.09 С 1 30 км 1/0
[Ci fib]
+12.3 +9.3 82 +12 +12 1029.9 1021.0
21 19.09 ЮВ 1 30 км ясно +11.9 +9.5 85 +13 +13 1030.0 1021.1
22 19.09 штиль 0 25 км ясно +10.0 +8.0 87 +9 +9 1030.0 1021.1
23 19.09 штиль 0 20 км ясно +9.1 +7.9 92 +8 +8 1029.8 1020.9
00 20.09 ЮЗ 1 8000 м дымка н/о +9.1 +8.3 95 +9 +9 1029.5 1020.6
01 20.09 штиль 0 17 км н/о +8.1 +7.3 95 +7 +7 1029.4 1020.5
02 20.09 штиль 0 100 м туман н/о +7.0 +6.3 95 +6 +6 1029.1 1020.1
03 20.09 В 1 800 м туман н/о +6.6 +6.1 97 +6 +6 1028.7 1019.7
04 20.09 штиль 0 8000 м в посл. час туман н/о +5.7 +5.2 97 +5 +5 1028.3 1019.3
05 20.09 В 1 300 м туман н/о +6.7 +6.4 98 +7 +7 1027.9 1019.0
06 20.09 штиль 0 600 м туман местами 1/0
[Ci fib]
+6.2 +6.0 99 +5 +5 1027.8 1018.8 +5.4
07 20.09 В 1 20 км в посл. час туман 1/0
[Ci fib]
+8.4 +8.3 99 +7 +8 1027.5 1018.6
08 20.09 В 2 20 км 1/0
[Ci fib]
+11.3 +10.2 93 +10 +11 1027.5 1018.7
09 20.09 В 3 25 км {туман} 1/0
[Ci fib]
+13.7 +9.8 77 +13 +16 1027.1 1018.3
10 20.09 ЮВ 4 25 км 1/0
[Ci fib]
+16.1 +10.4 69 +15 +19 1026.4 1017.7
11 20.09 ЮВ 4 25 км 3/1 840 м
[Cu hum Ci fib]
+17.6 +11.3 67 +17 +21 1025.7 1017.1

 

Местоположение метеостанции Шобери (Великобритания): широта 52.80 долгота -2.67 высота над уровнем моря 72 м.

В архиве по умолчанию представлена погода в Шобери за последнюю неделю. Архивные данные за месяц целиком и за предыдущие месяцы, начиная с января 2011 года, Вы можете получить, выбрав интересующий диапазон дат из раскрывающегося списка и нажав кнопку "Ввод!".


*Определитесь, кто Вы:
робот инопланетянин человек

Внимание! Время в таблицах - всемирное. Для получения местного времени необходимо прибавить поправку, которая равна 0 ч.

Смотрите также архив погоды в соседних городах и на ближайших метеорологических станциях:

Погода в Гавардене (Великобритания) (46 км)
Погода на Озере Вирнви (Великобритания) (54 км)
Погода в Лик-Торнклифф (Великобритания) (59 км)
Погода в Бала (Великобритания) (61 км)
Погода в Шобдоне (Великобритания) (63 км)
Погода на Ростерн Мир (Великобритания) (64 км)
Погода в Риле (Великобритания) (75 км)
Погода в Колсхилле (Великобритания) (76 км)
Погода в Хирфорде (Великобритания) (81 км)
Погода в Кросби (Великобритания) (82 км)

Пояснения к столбцам:

Ветер - указаны скорость ветра в м/с - средняя за 10 мин, порывы в срок и между сроками (в фигурных скобках) и направление, откуда дует ветер: С - северный, СВ - северо-восточный, В - восточный, ЮВ - юго-восточный, Ю - южный, ЮЗ - юго-западный, З - западный, СЗ - северо-западный.
Видимость - горизонтальная дальность видимости в метрах или километрах. При видимости от 1 до 10 км при отсутствии осадков обычно наблюдается дымка, при ухудшении видимости до 1 км и менее - туман. В сухую погоду видимость может ухудшаться дымом, пылью или мглою.
Явления - указаны атмосферные явления, наблюдавшиеся в срок или в последний час перед сроком; фигурными скобками обозначены явления, наблюдавшиеся между сроками (за 1-3 часа до срока); квадратными скобками обозначены град или гололедные отложения с указанием их диаметра в мм.
Облачность - указаны через наклонную черту общая и нижняя облачность в баллах и высота нижней границы облаков в метрах; квадратными скобками обозначены формы облаков: Ci - перистые, Cs - перисто-слоистые, Cc - перисто-кучевые, Ac - высококучевые, As - высокослоистые, Sc - слоисто-кучевые, Ns - слоисто-дождевые, Cu - кучевые, Cb - кучево-дождевые. Подробнее классификацию облаков см. в Атласе облаков (PDF).
T - Температура воздуха - температура, измеренная на высоте 2 м над землей.
Td - Температура точки росы - температура, при понижении до которой содержащийся в воздухе водяной пар достигнет насыщения.
f - Относительная влажность воздуха - влажноcть воздуха, измеренная на высоте 2 м над землей.
Te - Эффективная температура - температура, которую ощущает одетый по сезону человек в тени. Характеристика душности погоды. При расчете учитывается влияние влажности воздуха и скорости ветра на теплоощущения человека.
Tes - Эффективная температура на солнце - температура, которую ощущает человек, с поправкой на солнечный нагрев. Характеристика знойности погоды. Зависит от высоты солнца над горизонтом, облачности и скорости ветра. Ночью, в пасмурную погоду, а также при ветре 12 м/с и более поправка равна нулю.
P - Атмосферное давление - приведенное к уровню моря атмосферное давление.
Po - Атмосферное давление - измеренное на уровне метеостанции атмосферное давление.
Tmin - Минимальная температура - минимум температуры воздуха на высоте 2 м над землей.
Tmax - Максимальная температура - максимум температуры воздуха на высоте 2 м над землей.
R - Количество осадков - Количество выпавших осадков за период времени, мм. При наведении курсора мыши на число - период времени, за который выпало указанное количество осадков.
R24 - Количество осадков - Количество выпавших осадков за 24 часа, мм.
S - Снежный покров - Высота снежного покрова, см. При наведении курсора мыши на число - состояние снежного покрова и степень покрытия местности в баллах.